Regional Weather Roundup
Issued by NWS

Home | Current Version | Previous Version | Graphics & Text | Print | Product List | Glossary On
Versions: 1 2 3 4 5 6 7 8 9 10 11 12 13 14 15 16 17 18 19 20 21 22 23 24 25 26 27 28 29 30 31 32 33 34 35 36 37 38 39 40 41 42 43 44 45 46 47 48 49 50
000
ASUS43 KLMK 200002
RWRKY
KENTUCKY REGIONAL WEATHER ROUNDUP
NATIONAL WEATHER SERVICE LOUISVILLE KY
800 PM EDT SAT MAY 19 2018

NOTE "FAIR" INDICATES FEW OR NO CLOUDS BELOW 12,000 FEET
WITH NO SIGNIFICANT WEATHER AND/OR OBSTRUCTIONS TO VISIBILITY.

KYZ001>023-026-027-061>063-070>075-200100-
WESTERN AND SOUTH CENTRAL KENTUCKY

CITY           SKY/WX    TMP DP  RH WIND       PRES   REMARKS
PADUCAH        FAIR      68  65  90 SW7       30.00S
HENDERSON      NOT AVBL
OWENSBORO      FAIR      80  68  66 W5        29.97R
HOPKINSVILLE   MOCLDY    79  67  67 W23G36    30.01R
BOWLING GREEN  MOCLDY    82  68  62 W6        29.98R
GLASGOW        NOT AVBL
$$

KYZ024-025-028>034-038-045-046-053-200100-
NORTH CENTRAL KENTUCKY

CITY           SKY/WX    TMP DP  RH WIND       PRES   REMARKS
LOUISVILLE/SDF MOCLDY    80  66  62 W9        29.96R
LOUISVILLE/LOU FAIR      80  67  64 W8        29.96R
FORT KNOX      FAIR      77  64  63 W8        29.98R
$$

KYZ035>037-039>044-047>052-055>060-089>105-200100-
NORTHEAST KENTUCKY

CITY           SKY/WX    TMP DP  RH WIND       PRES   REMARKS
LEXINGTON      FAIR      75  68  78 SW5       29.98R
COVINGTON      FAIR      74  66  76 SW7       29.93R
FRANKFORT      FAIR      77  65  66 W3        29.95R
$$

KYZ054-064>069-076>088-106>120-200100-
SOUTHEAST KENTUCKY

CITY           SKY/WX    TMP DP  RH WIND       PRES   REMARKS
JACKSON        FAIR      70  66  87 VRB3      30.01R
LONDON         FAIR      72  68  87 CALM      30.02R
SOMERSET       NOT AVBL
MIDDLESBORO    MOCLDY    69  69  99 CALM      30.05R
MONTICELLO     FAIR      75  70  84 NE8       30.03R
$$




USA.gov is the U.S. government's official web portal to all federal, state and local government web resources and services.